TimeAKST,TemperatureF,Dew PointF,Humidity,Sea Level PressureIn,VisibilityMPH,Wind Direction,Wind SpeedMPH,Gust SpeedMPH,PrecipitationIn,Events,Conditions,WindDirDegrees,DateUTC
12:16 AM,6.8,-2.2,67,30.19,10.0,North,11.5,-,N/A,,Clear,350,2013-11-21 09:16:00
12:36 AM,8.6,-7.6,48,30.19,10.0,NW,6.9,-,N/A,,Clear,320,2013-11-21 09:36:00
12:56 AM,8.6,-5.8,52,30.18,10.0,West,6.9,-,N/A,,Clear,280,2013-11-21 09:56:00
1:16 AM,6.8,-2.2,67,30.18,10.0,NNW,8.1,-,N/A,,Clear,340,2013-11-21 10:16:00
1:36 AM,6.8,-9.4,48,30.17,10.0,NNW,8.1,-,N/A,,Clear,340,2013-11-21 10:36:00
1:56 AM,6.8,-2.2,67,30.17,10.0,North,5.8,-,N/A,,Clear,360,2013-11-21 10:56:00
2:16 AM,6.8,-7.6,52,30.17,10.0,NW,5.8,-,N/A,,Clear,320,2013-11-21 11:16:00
2:36 AM,6.8,-5.8,56,30.15,10.0,NE,6.9,-,N/A,,Clear,40,2013-11-21 11:36:00
2:56 AM,8.6,-7.6,48,30.12,8.0,NE,27.6,35.7,N/A,,Clear,50,2013-11-21 11:56:00
3:16 AM,6.8,-5.8,56,30.12,10.0,ENE,24.2,34.5,N/A,,Clear,60,2013-11-21 12:16:00
3:36 AM,6.8,-5.8,56,30.12,10.0,NE,20.7,28.8,N/A,,Clear,50,2013-11-21 12:36:00
3:56 AM,6.8,-5.8,56,30.11,10.0,NE,21.9,29.9,N/A,,Clear,50,2013-11-21 12:56:00
4:16 AM,6.8,-5.8,56,30.10,10.0,ENE,21.9,29.9,N/A,,Clear,60,2013-11-21 13:16:00
4:36 AM,6.8,-4.0,61,30.10,10.0,NE,20.7,26.5,N/A,,Clear,50,2013-11-21 13:36:00
4:56 AM,6.8,-5.8,56,30.09,10.0,ENE,21.9,29.9,N/A,,Clear,60,2013-11-21 13:56:00
5:16 AM,6.8,-5.8,56,30.08,10.0,NNE,16.1,21.9,N/A,,Clear,30,2013-11-21 14:16:00
5:36 AM,6.8,-5.8,56,30.07,10.0,NNE,18.4,-,N/A,,Clear,30,2013-11-21 14:36:00
5:56 AM,6.8,-4.0,61,30.06,10.0,NE,17.3,23.0,N/A,,Clear,50,2013-11-21 14:56:00
6:16 AM,8.6,-5.8,52,30.04,10.0,NE,24.2,33.4,N/A,,Clear,50,2013-11-21 15:16:00
6:36 AM,8.6,-5.8,52,30.04,10.0,NE,26.5,32.2,N/A,,Clear,50,2013-11-21 15:36:00
6:56 AM,8.6,-7.6,48,30.04,10.0,NE,21.9,28.8,N/A,,Clear,50,2013-11-21 15:56:00
7:16 AM,8.6,-7.6,48,30.03,10.0,NE,23.0,32.2,N/A,,Clear,50,2013-11-21 16:16:00
7:36 AM,8.6,-7.6,48,30.03,10.0,NE,23.0,28.8,N/A,,Clear,50,2013-11-21 16:36:00
7:56 AM,8.6,-7.6,48,30.03,10.0,NE,23.0,29.9,N/A,,Clear,50,2013-11-21 16:56:00
8:16 AM,8.6,-9.4,44,30.02,10.0,NE,27.6,34.5,N/A,,Clear,40,2013-11-21 17:16:00
8:36 AM,8.6,-7.6,48,30.01,10.0,NNE,24.2,31.1,N/A,,Clear,30,2013-11-21 17:36:00
8:56 AM,8.6,-7.6,48,30.01,10.0,NE,25.3,36.8,N/A,,Clear,40,2013-11-21 17:56:00
9:16 AM,8.6,-7.6,48,30.01,10.0,ENE,20.7,29.9,N/A,,Clear,60,2013-11-21 18:16:00
9:36 AM,8.6,-9.4,44,29.99,10.0,NE,23.0,32.2,N/A,,Clear,50,2013-11-21 18:36:00
9:56 AM,8.6,-7.6,48,29.98,10.0,NE,24.2,29.9,N/A,,Clear,40,2013-11-21 18:56:00
10:16 AM,8.6,-9.4,44,29.98,10.0,NE,24.2,29.9,N/A,,Clear,40,2013-11-21 19:16:00
10:36 AM,8.6,-9.4,44,29.96,10.0,NE,24.2,34.5,N/A,,Clear,50,2013-11-21 19:36:00
10:56 AM,6.8,-9.4,48,29.95,10.0,NE,24.2,32.2,N/A,,Clear,40,2013-11-21 19:56:00
11:16 AM,8.6,-5.8,52,29.95,10.0,NE,21.9,29.9,N/A,,Clear,50,2013-11-21 20:16:00
11:36 AM,8.6,-11.2,40,29.94,10.0,NE,25.3,35.7,N/A,,Clear,50,2013-11-21 20:36:00
11:56 AM,8.6,-9.4,44,29.92,10.0,NE,26.5,32.2,N/A,,Clear,40,2013-11-21 20:56:00
12:16 PM,8.6,-9.4,44,29.90,10.0,NNE,26.5,39.1,N/A,,Clear,30,2013-11-21 21:16:00
12:36 PM,8.6,-9.4,44,29.89,10.0,NE,24.2,34.5,N/A,,Clear,40,2013-11-21 21:36:00
12:56 PM,6.8,-9.4,48,29.87,10.0,NNE,29.9,38.0,N/A,,Clear,30,2013-11-21 21:56:00
1:16 PM,6.8,-7.6,52,29.86,10.0,NE,27.6,38.0,N/A,,Clear,40,2013-11-21 22:16:00
1:36 PM,6.8,-7.6,52,29.87,10.0,NNE,20.7,34.5,N/A,,Clear,30,2013-11-21 22:36:00
2:16 PM,6.8,-9.4,48,29.83,10.0,NE,27.6,32.2,N/A,,Clear,50,2013-11-21 23:16:00
2:36 PM,6.8,-7.6,52,29.81,10.0,ENE,25.3,36.8,N/A,,Clear,60,2013-11-21 23:36:00
2:56 PM,6.8,-7.6,52,29.82,10.0,NE,16.1,28.8,N/A,,Clear,50,2013-11-21 23:56:00
3:16 PM,6.8,-9.4,48,29.81,10.0,NE,19.6,24.2,N/A,,Clear,50,2013-11-22 00:16:00
3:36 PM,6.8,-9.4,48,29.80,10.0,ENE,20.7,28.8,N/A,,Clear,60,2013-11-22 00:36:00
3:56 PM,5.0,-9.4,52,29.80,10.0,NE,16.1,25.3,N/A,,Clear,50,2013-11-22 00:56:00
4:16 PM,5.0,-9.4,52,29.78,10.0,ENE,17.3,26.5,N/A,,Clear,60,2013-11-22 01:16:00
4:36 PM,5.0,-9.4,52,29.78,10.0,NE,19.6,27.6,N/A,,Clear,40,2013-11-22 01:36:00
4:56 PM,5.0,-9.4,52,29.77,10.0,NE,20.7,27.6,N/A,,Partly Cloudy,40,2013-11-22 01:56:00
5:16 PM,5.0,-9.4,52,29.75,10.0,NE,18.4,31.1,N/A,,Scattered Clouds,40,2013-11-22 02:16:00
5:36 PM,3.2,-9.4,56,29.73,10.0,NE,25.3,32.2,N/A,,Partly Cloudy,40,2013-11-22 02:36:00
5:56 PM,3.2,-9.4,56,29.69,10.0,NE,28.8,39.1,N/A,,Clear,50,2013-11-22 02:56:00
6:16 PM,3.2,-9.4,56,29.69,10.0,NE,24.2,36.8,N/A,,Clear,50,2013-11-22 03:16:00
6:36 PM,3.2,-9.4,56,29.67,10.0,ENE,24.2,39.1,N/A,,Clear,60,2013-11-22 03:36:00
6:56 PM,3.2,-9.4,56,29.67,10.0,NE,24.2,39.1,N/A,,Clear,50,2013-11-22 03:56:00
7:16 PM,3.2,-9.4,56,29.64,10.0,ENE,28.8,38.0,0.01,,Clear,60,2013-11-22 04:16:00
7:36 PM,3.2,-9.4,56,29.63,10.0,ENE,27.6,36.8,0.01,,Clear,60,2013-11-22 04:36:00
7:56 PM,3.2,-9.4,56,29.62,10.0,ENE,26.5,36.8,0.01,,Clear,60,2013-11-22 04:56:00
8:16 PM,3.2,-9.4,56,29.61,10.0,ENE,25.3,35.7,N/A,,Clear,60,2013-11-22 05:16:00
8:36 PM,5.0,-9.4,52,29.60,10.0,ENE,29.9,39.1,N/A,,Clear,60,2013-11-22 05:36:00
8:56 PM,5.0,-9.4,52,29.59,10.0,ENE,29.9,43.7,N/A,,Clear,60,2013-11-22 05:56:00
9:16 PM,5.0,-9.4,52,29.59,10.0,NE,23.0,33.4,N/A,,Clear,50,2013-11-22 06:16:00
9:36 PM,5.0,-9.4,52,29.59,10.0,NNE,12.7,29.9,N/A,,Clear,20,2013-11-22 06:36:00
9:56 PM,6.8,-9.4,48,29.55,10.0,ENE,29.9,40.3,N/A,,Clear,60,2013-11-22 06:56:00
10:16 PM,6.8,-7.6,52,29.53,10.0,ENE,28.8,42.6,0.02,,Scattered Clouds,60,2013-11-22 07:16:00
10:36 PM,6.8,-7.6,52,29.54,9.0,ENE,23.0,44.9,0.02,,Mostly Cloudy,60,2013-11-22 07:36:00
10:56 PM,8.6,-7.6,48,29.52,10.0,NE,24.2,35.7,0.02,,Mostly Cloudy,50,2013-11-22 07:56:00
11:16 PM,8.6,-5.8,52,29.51,10.0,NE,24.2,33.4,N/A,,Mostly Cloudy,50,2013-11-22 08:16:00
11:36 PM,8.6,-5.8,52,29.51,10.0,NE,21.9,32.2,N/A,,Partly Cloudy,40,2013-11-22 08:36:00
11:56 PM,8.6,-7.6,48,29.50,10.0,NE,23.0,36.8,N/A,,Scattered Clouds,40,2013-11-22 08:56:00